Location: The C. Gantt Observatory
(33.6981°N, 81.6836°W)
Time: 13:21:59
(UTC-04:00)

Iridium 30 - Visible Passes

Search period start: 29 March 2015 00:00
Search period end: 08 April 2015 00:00
Orbit: 776 x 779 km, 86.4° (Epoch: 29 March)

Date Brightness Start Highest point End Pass type
(mag) Time Alt. Az. Time Alt. Az. Time Alt. Az.
29 Mar 6.4 06:29:37 10° SSE 06:34:41 56° E 06:39:48 10° NNE visible
30 Mar 7.7 05:56:55 10° SE 06:01:16 29° E 06:05:45 10° NNE visible
31 Mar 8.6 05:25:15 10° ESE 05:27:57 15° E 05:30:55 10° NE visible
01 Apr 5.6 06:29:32 10° S 06:34:44 84° E 06:39:59 10° N visible
02 Apr 6.8 05:56:26 10° SSE 06:01:17 43° E 06:06:13 10° NNE visible
03 Apr 8.0 05:24:03 10° SE 05:27:55 22° E 05:31:56 10° NNE visible
04 Apr 8.7 04:53:22 10° E 04:54:36 11° E 04:56:13 10° ENE visible
04 Apr 5.5 06:29:40 10° S 06:34:49 65° W 06:40:01 10° N visible
05 Apr 6.0 05:56:11 10° S 06:01:19 65° E 06:06:29 10° N visible
06 Apr 7.3 05:23:20 10° SSE 05:27:54 33° E 05:32:33 10° NNE visible
07 Apr 8.2 04:51:22 10° ESE 04:54:32 17° E 04:57:57 10° NE visible
07 Apr 5.9 06:30:01 10° SSW 06:34:57 43° W 06:39:54 10° NNW visible
